Location: Roland
(31.1349°N, 85.4372°W)
Time: 21:09:17
(UTC+00:00)

A-11 Canister half - All Passes

Search period start: 17 April 2021 00:00
Search period end: 27 April 2021 00:00
Orbit: 1515 x 1685 km, 47.2° (Epoch: 17 April)

Date Brightness Start Highest point End Pass type
(mag) Time Alt. Az. Time Alt. Az. Time Alt. Az.
17 Apr - 01:25:48 10° SSW 01:34:25 44° SE 01:43:15 10° ENE visible
17 Apr - 03:29:53 10° WSW 03:39:07 60° NNW 03:48:43 10° NE visible
17 Apr - 05:37:34 10° WNW 05:45:53 32° N 05:54:28 10° NE visible
17 Apr - 07:44:37 10° NW 07:53:31 37° NNE 08:02:39 10° E visible
17 Apr - 09:49:42 10° NW 09:59:45 83° NE 10:09:57 10° SE visible
17 Apr - 11:55:53 10° WNW 12:04:07 30° SW 12:12:26 10° S daylight
18 Apr - 01:03:06 10° SSW 01:11:33 41° SE 01:20:12 10° ENE visible
18 Apr - 03:06:54 10° WSW 03:16:09 63° NNW 03:25:46 10° NE visible
18 Apr - 05:14:30 10° WNW 05:22:49 32° N 05:31:24 10° NE visible
18 Apr - 07:21:39 10° NW 07:30:27 36° NNE 07:39:30 10° E visible
18 Apr - 09:26:46 10° NW 09:36:47 79° NE 09:46:58 10° SE visible
18 Apr - 11:32:45 10° WNW 11:41:14 32° SW 11:49:48 10° S daylight
19 Apr - 00:40:26 10° SSW 00:48:42 38° SE 00:57:09 10° ENE visible
19 Apr - 02:43:55 10° WSW 02:53:11 67° NW 03:02:49 10° NE visible
19 Apr - 04:51:25 10° WNW 04:59:45 33° N 05:08:21 10° NE visible
19 Apr - 06:58:41 10° NW 07:07:23 35° NNE 07:16:20 10° ENE visible
19 Apr - 09:03:50 10° NW 09:13:48 75° NE 09:23:58 10° ESE visible
19 Apr - 11:09:40 10° WNW 11:18:21 35° SW 11:27:09 10° S daylight
20 Apr - 00:17:48 10° S 00:25:52 35° SE 00:34:05 10° ENE daylight
20 Apr - 02:20:58 10° WSW 02:30:15 70° NW 02:39:52 10° NE visible
20 Apr - 04:28:19 10° WNW 04:36:41 33° NNW 04:45:19 10° NE visible
20 Apr - 06:35:43 10° NW 06:44:18 34° NNE 06:53:09 10° ENE visible
20 Apr - 08:40:56 10° NW 08:50:50 71° NE 09:00:58 10° ESE visible
20 Apr - 10:46:35 10° WNW 10:55:27 37° SW 11:04:28 10° SSE daylight
20 Apr - 23:55:10 10° S 00:03:01 32° SE 00:11:00 10° ENE daylight
21 Apr - 01:58:01 10° WSW 02:07:19 74° NW 02:16:55 10° NE visible
21 Apr - 04:05:15 10° WNW 04:13:37 34° NNW 04:22:16 10° NE visible
21 Apr - 06:12:44 10° NW 06:21:15 33° NNE 06:30:00 10° ENE visible
21 Apr - 08:18:00 10° NW 08:27:51 67° NE 08:37:55 10° ESE visible
21 Apr - 10:23:31 10° WNW 10:32:34 40° SW 10:41:46 10° SSE visible
21 Apr - 23:32:35 10° S 23:40:11 29° SE 23:47:53 10° ENE daylight
22 Apr - 01:35:05 10° SW 01:44:22 78° NW 01:53:58 10° NE visible
22 Apr - 03:42:09 10° W 03:50:34 35° NNW 03:59:15 10° NE visible
22 Apr - 05:49:45 10° NW 05:58:10 32° N 06:06:49 10° ENE visible
22 Apr - 07:55:06 10° NW 08:04:52 64° NNE 08:14:53 10° ESE visible
22 Apr - 10:00:29 10° WNW 10:09:40 43° SW 10:19:01 10° SSE visible
22 Apr - 23:10:02 10° S 23:17:21 27° SE 23:24:44 10° ENE daylight
23 Apr - 01:12:10 10° SW 01:21:27 83° NW 01:31:02 10° NE visible
23 Apr - 03:19:05 10° W 03:27:31 36° NNW 03:36:15 10° NE visible
23 Apr - 05:26:46 10° NW 05:35:05 32° N 05:43:40 10° ENE visible
23 Apr - 07:32:11 10° NW 07:41:52 61° NNE 07:51:50 10° ESE visible
23 Apr - 09:37:28 10° WNW 09:46:46 46° SW 09:56:16 10° SSE visible
23 Apr - 22:47:30 10° S 22:54:31 25° SE 23:01:35 10° ENE daylight
24 Apr - 00:49:16 10° SW 00:58:32 87° NW 01:08:05 10° NE visible
24 Apr - 02:56:00 10° W 03:04:29 37° NNW 03:13:15 10° NE visible
24 Apr - 05:03:45 10° NW 05:12:01 31° N 05:20:30 10° ENE visible
24 Apr - 07:09:16 10° NW 07:18:53 58° NNE 07:28:45 10° ESE visible
24 Apr - 09:14:28 10° WNW 09:23:52 50° SW 09:33:28 10° SSE visible
24 Apr - 22:25:02 10° S 22:31:41 22° SE 22:38:23 10° ENE daylight
25 Apr - 00:26:22 10° SW 00:35:38 88° SE 00:45:09 10° NE visible
25 Apr - 02:32:55 10° W 02:41:27 38° NNW 02:50:15 10° NE visible
25 Apr - 04:40:45 10° NW 04:48:56 31° N 04:57:21 10° ENE visible
25 Apr - 06:46:22 10° NW 06:55:53 55° NNE 07:05:41 10° ESE visible
25 Apr - 08:51:29 10° WNW 09:00:58 53° SW 09:10:41 10° SSE visible
25 Apr - 22:02:37 10° SSE 22:08:52 20° SE 22:15:08 10° E daylight
26 Apr - 00:03:29 10° SW 00:12:44 84° SE 00:22:12 10° NE daylight
26 Apr - 02:09:52 10° W 02:18:26 39° NNW 02:27:17 10° NE visible
26 Apr - 04:17:45 10° NW 04:25:51 30° N 04:34:13 10° ENE visible
26 Apr - 06:23:28 10° NW 06:32:53 52° NNE 06:42:36 10° ESE visible
26 Apr - 08:28:30 10° WNW 08:38:03 57° SW 08:47:52 10° SSE visible
26 Apr - 10:39:11 10° WSW 10:41:48 11° WSW 10:44:27 10° SW visible
26 Apr - 21:40:15 10° SSE 21:46:02 18° SE 21:51:50 10° E daylight
26 Apr - 23:40:37 10° SW 23:49:50 79° SE 23:59:15 10° NE daylight
